map of BFP home
Great Circle Mapper logo
BFP - Airport
Location
City:  Beaver Falls, Pennsylvania, United States
Name:Beaver County Airport
ICAO / IATA:KBVI / BFP
FAA:BVI

Details
Type:Airport (Airfield)
Use:Public/Civil
Latitude:4046'21"N (40.772472)
Longitude:8023'29"W (-80.391443)
Datum:WGS 1984
Elevation:1253 ft (382 m)
Runways:1
Longest:4501 × 100 ft (1372 × 30.5 m), paved

Time
Time Zone:UTC-5 (DST-4)
Local Time:

Weather
METAR:KBVI 252247Z 26006G14KT 10SM BKN045 BKN060 18/11 A2975
TAF:KBVI 252127Z 2521/2618 26008G17KT P6SM BKN035
FM252200 26008G16KT P6SM SKC
FM260600 30010KT P6SM SKC
FM261400 28012G20KT P6SM FEW040

Related Locations
Nearby:
Farthest:MGV: 11467 mi / 18455 km
Margaret River, WA, AU

Find:

   beyond  
but within

Other Information
Maps:
NOTAMs:
Links:
Sources:

  
flag of United States
flag of Pennsylvania
  

Airport Diagram

Airport diagram for BFP

Airport diagram PDF

Sectional Chart

Flight Planning
at skyvector.com

Satellite Image

Google Maps Satellite View

 

Copyright © 2004-2014 Karl L. Swartz. All rights reserved.
The Great Circle Mapper name and logo are trademarks of the Great Circle Mapper.
All other trademarks mentioned herein belong to their respective owners.
Please see credits for attibutions and further copyright information.

  Follow gcmap on Facebook Follow gcmap on Twitter

hCard Microformat

Geo Microformat